SKYSAT-C11

Last updated on Tue Aug 25 2026 00:02:45 GMT+0000 (Coordinated Universal Time)

1 42987U 17068A 26236.38785160 .00030480 00000+0 35866-3 0 9994 2 42987 97.4420 28.4027 0001685 98.1034 262.0414 15.61372293493875
UTC large
Height (km)
Speed (km/s)
/
Latitude / Longitude
Inclination (degrees)
Orbital Period (minutes)
Azimuth
Elevation
Range (km)
Doppler Factor

Next 0 passes for location: London (51.5072 / 0.1276)

No passes found over London.
SKYSAT-C11